Pagina principale
METAR-TAF:

METAR-TAF

Aeroporti :

Frontone, Italia

latitudine: 43-31N, longitudine: 012-44E, altezza: 570 m

Osservazione

Il bollettino è stato emesso 36 minuti fa, alle 15:55 UTC
Vento 4 kt da sud-ovest
Temperature 19°C
Umidità 60%
Pressione 1001 hPa
Visibilità 10 km o più
Poco nuvoloso ad un'altezza di 2800 ft

METAR: LIVF 051555Z 22004KT 9999 FEW028 19/11 Q1001 RMK SCT MON S W CLD SCT NC VAL NIL VIS MIN 9999

Ora: 18:31 (16:31 UTC)


TAF: mancante

Osservazioni e previsioni meteorologiche di più di 4000 aeroporti (messaggi METAR e TAF).

Le stazioni disponibili sono rappresentate dai dischi gialli e rossi sulla carta.

Puntare il mouse per vedere il nome della stazione.

Clicca sopra per visualizzare le osservazioni e previsioni meteorologiche.

Per cambiare la mappa : fare clic sui pulsanti verdi con una croce nera per ingrandire, il pulsante verde con un trattino per diminuire, o sulla freccia verde per le mappe adiacenti.


METAR-TAF: